Weather History for Tarboro, NC

Change the Weather History Date:

Sunday, December 9, 2012

  Actual Average Record
Temperature  
Mean Temperature 58 °F -  
Max Temperature 73 °F 58 °F 76 °F (1951)
Min Temperature 43 °F 33 °F 18 °F (1976)
Degree Days  
Heating Degree Days 7    
Growing Degree Days 8 (Base 50)    
Moisture  
Dew Point 53 °F    
Average Humidity 83    
Maximum Humidity 96    
Minimum Humidity 57    
Precipitation  
Precipitation 0.00 in - - ()
Sea Level Pressure  
Sea Level Pressure 30.08 in    
Wind  
Wind Speed 1 mph (SSE)    
Max Wind Speed 7 mph    
Max Gust Speed -    
Visibility 7 miles    
Events Fog , Rain    
Averages and records for this station are not official NWS values.
T = Trace of Precipitation, MM = Missing Value Source: NWS Daily Summary

Daily Weather History Graph

Daily Weather History Graph

Search for Another Location

Airport:

Trip Planner

Search our weather history database for the weather conditions in past years. The results will help you decide how hot, cold, wet, or windy it might be!

Date:

Astronomy

Dec. 09, 2012 Rise Set
Actual Time 7:09 AM EST 4:56 PM EST
Civil Twilight 6:40 AM EST 5:24 PM EST
Nautical Twilight 6:08 AM EST 5:56 PM EST
Astronomical Twilight 5:37 AM EST 6:27 PM EST
Moon 2:45 AM EST (12/9) 1:56 PM EST (12/9)
Length of Visible Light 10h 43m
Length of Day
9h 46m
Waning Crescent, 19% of the Moon is Illuminated
Dec 9
Waning Crescent
Dec 13
New
Dec 20
First Quarter
Dec 28
Full
Jan 4
Last Quarter

Hourly Weather History & Observations

Time (EST) Temp. Windchill Dew Point Humidity Pressure Visibility Wind Dir Wind Speed Gust Speed Precip Events Conditions
12:15 AM 43.9 °F - 42.6 °F 95% 30.06 in 0.2 mi Calm Calm - N/A Fog Fog
12:35 AM 44.1 °F - 42.6 °F 95% 30.06 in 0.5 mi Calm Calm - N/A Fog Fog
12:55 AM 43.9 °F - 42.4 °F 95% 30.07 in 0.5 mi Calm Calm - N/A Fog Fog
1:15 AM 43.3 °F - 42.1 °F 95% 30.08 in 0.2 mi Calm Calm - N/A Fog Fog
1:35 AM 43.7 °F - 42.6 °F 96% 30.08 in 0.8 mi Calm Calm - N/A   Overcast
1:55 AM 44.1 °F - 43.0 °F 96% 30.09 in 0.2 mi Calm Calm - N/A Fog Fog
2:15 AM 44.6 °F - 43.3 °F 95% 30.08 in 1.5 mi Calm Calm - N/A   Overcast
2:35 AM 44.6 °F 43.1 °F 43.3 °F 95% 30.08 in 2.0 mi East 3.5 mph - N/A   Overcast
2:55 AM 45.3 °F - 44.1 °F 95% 30.08 in 2.0 mi Calm Calm - N/A   Overcast
3:15 AM 46.6 °F - 45.3 °F 95% 30.08 in 2.5 mi Calm Calm - N/A   Overcast
3:35 AM 47.8 °F - 46.6 °F 95% 30.08 in 3.0 mi Calm Calm - N/A   Overcast
3:55 AM 48.4 °F - 47.1 °F 95% 30.08 in 4.0 mi Calm Calm - N/A   Overcast
4:15 AM 48.7 °F - 47.5 °F 95% 30.08 in 3.0 mi Calm Calm - N/A   Mostly Cloudy
4:35 AM 48.4 °F - 47.1 °F 95% 30.09 in 3.0 mi Calm Calm - N/A   Mostly Cloudy
4:55 AM 48.2 °F - 46.9 °F 95% 30.09 in 3.0 mi Calm Calm - N/A   Mostly Cloudy
5:15 AM 48.2 °F - 46.8 °F 95% 30.10 in 2.5 mi Calm Calm - N/A   Mostly Cloudy
5:35 AM 47.8 °F - 46.6 °F 95% 30.10 in 2.5 mi Calm Calm - N/A   Mostly Cloudy
5:55 AM 48.4 °F - 47.1 °F 95% 30.10 in 3.0 mi Calm Calm - N/A Rain Light Rain
6:15 AM 49.1 °F - 47.8 °F 95% 30.11 in 4.0 mi Calm Calm - N/A   Overcast
6:35 AM 49.6 °F - 48.4 °F 95% 30.11 in 4.0 mi Calm Calm - N/A   Overcast
6:55 AM 50.4 °F - 48.9 °F 95% 30.12 in 2.5 mi Calm Calm - N/A Rain Light Rain
7:15 AM 51.1 °F - 49.6 °F 95% 30.12 in 2.0 mi Calm Calm - N/A   Overcast
7:35 AM 51.8 °F - 50.2 °F 94% 30.13 in 1.8 mi Calm Calm - N/A   Overcast
7:55 AM 52.2 °F - 50.7 °F 95% 30.13 in 1.8 mi Calm Calm - N/A   Overcast
8:15 AM 52.7 °F - 51.3 °F 95% 30.13 in 1.5 mi Calm Calm - N/A Rain Light Rain
8:35 AM 53.2 °F - 52.0 °F 95% 30.14 in 1.8 mi Calm Calm - N/A   Overcast
8:55 AM 54.5 °F - 53.2 °F 96% 30.14 in 3.0 mi Calm Calm - N/A   Overcast
9:15 AM 55.8 °F - 54.1 °F 94% 30.15 in 3.0 mi Calm Calm - N/A   Overcast
9:35 AM 56.5 °F - 55.0 °F 95% 30.15 in 4.0 mi Calm Calm - N/A   Overcast
9:55 AM 57.6 °F - 55.8 °F 94% 30.15 in 5.0 mi South 3.5 mph - N/A   Overcast
10:15 AM 59.0 °F - 56.1 °F 90% 30.15 in 7.0 mi SSE 3.5 mph - N/A   Overcast
10:35 AM 60.4 °F - 56.7 °F 87% 30.15 in 7.0 mi SSE 3.5 mph - N/A   Overcast
10:55 AM 62.2 °F - 57.0 °F 83% 30.14 in 10.0 mi SSE 3.5 mph - N/A   Overcast
11:15 AM 63.9 °F - 57.6 °F 80% 30.13 in 10.0 mi SSE 4.6 mph - N/A   Overcast
11:35 AM 65.5 °F - 58.1 °F 77% 30.12 in 10.0 mi SSE 3.5 mph - N/A   Overcast
11:55 AM 66.9 °F - 58.3 °F 74% 30.11 in 10.0 mi SE 3.5 mph - N/A   Overcast
12:15 PM 69.1 °F - 58.1 °F 68% 30.10 in 10.0 mi SE 3.5 mph - N/A   Mostly Cloudy
12:35 PM 70.0 °F - 56.5 °F 62% 30.09 in 10.0 mi South 5.8 mph - N/A   Overcast
12:55 PM 70.2 °F - 56.7 °F 62% 30.09 in 10.0 mi SW 3.5 mph - N/A   Overcast
1:15 PM 70.9 °F - 57.0 °F 61% 30.08 in 10.0 mi SSE 6.9 mph - N/A   Overcast
1:35 PM 71.6 °F - 57.0 °F 60% 30.08 in 10.0 mi South 5.8 mph - N/A   Overcast
1:55 PM 72.0 °F - 57.0 °F 59% 30.07 in 10.0 mi SSW 5.8 mph - N/A   Overcast
2:15 PM 72.0 °F - 57.0 °F 59% 30.07 in 10.0 mi Calm Calm - N/A   Overcast
2:35 PM 72.0 °F - 57.0 °F 59% 30.07 in 10.0 mi SSW 6.9 mph - N/A   Overcast
2:55 PM 72.7 °F - 57.0 °F 58% 30.07 in 10.0 mi SSE 4.6 mph - N/A   Overcast
3:15 PM 73.0 °F - 56.8 °F 57% 30.07 in 10.0 mi SSE 3.5 mph - N/A   Mostly Cloudy
3:35 PM 72.1 °F - 56.3 °F 57% 30.07 in 10.0 mi SE 4.6 mph - N/A   Mostly Cloudy
3:55 PM 71.1 °F - 56.3 °F 60% 30.06 in 10.0 mi SE 4.6 mph - N/A   Overcast
4:15 PM 70.5 °F - 56.3 °F 61% 30.06 in 10.0 mi Calm Calm - N/A   Mostly Cloudy
4:35 PM 69.6 °F - 56.3 °F 63% 30.06 in 10.0 mi Calm Calm - N/A   Mostly Cloudy
4:55 PM 68.9 °F - 56.5 °F 65% 30.07 in 10.0 mi South 3.5 mph - N/A   Mostly Cloudy
5:15 PM 68.0 °F - 56.7 °F 67% 30.06 in 10.0 mi Calm Calm - N/A   Scattered Clouds
5:35 PM 66.2 °F - 56.5 °F 71% 30.07 in 10.0 mi Calm Calm - N/A   Clear
5:55 PM 63.5 °F - 56.5 °F 78% 30.07 in 10.0 mi SE 3.5 mph - N/A   Clear
6:15 PM 64.0 °F - 56.8 °F 77% 30.06 in 10.0 mi SSE 4.6 mph - N/A   Clear
6:35 PM 65.7 °F - 57.4 °F 75% 30.07 in 10.0 mi SSE 4.6 mph - N/A   Scattered Clouds
6:55 PM 65.7 °F - 57.2 °F 74% 30.06 in 10.0 mi SSE 5.8 mph - N/A   Clear
7:15 PM 66.0 °F - 57.7 °F 75% 30.06 in 10.0 mi SSE 5.8 mph - N/A   Clear
7:35 PM 65.5 °F - 57.6 °F 76% 30.06 in 10.0 mi SE 3.5 mph - N/A   Clear
7:55 PM 64.4 °F - 57.2 °F 77% 30.06 in 10.0 mi SSE 4.6 mph - N/A   Clear
8:15 PM 63.7 °F - 57.2 °F 79% 30.07 in 10.0 mi SSE 4.6 mph - N/A   Clear
8:35 PM 63.5 °F - 57.7 °F 81% 30.06 in 10.0 mi SE 3.5 mph - N/A   Scattered Clouds
8:55 PM 63.1 °F - 58.1 °F 84% 30.05 in 10.0 mi Calm Calm - N/A   Scattered Clouds
9:15 PM 62.4 °F - 57.9 °F 85% 30.05 in 10.0 mi Calm Calm - N/A   Scattered Clouds
9:35 PM 61.9 °F - 58.1 °F 87% 30.05 in 10.0 mi SSE 4.6 mph - N/A   Mostly Cloudy
9:55 PM 61.9 °F - 58.5 °F 89% 30.05 in 10.0 mi South 4.6 mph - N/A   Scattered Clouds
10:15 PM 61.7 °F - 58.5 °F 89% 30.04 in 10.0 mi SSE 4.6 mph - N/A   Clear
10:35 PM 61.5 °F - 58.5 °F 90% 30.04 in 10.0 mi South 4.6 mph - N/A   Mostly Cloudy
10:55 PM 61.3 °F - 58.3 °F 90% 30.03 in 10.0 mi SSE 4.6 mph - N/A   Overcast
11:15 PM 61.2 °F - 58.3 °F 90% 30.03 in 10.0 mi South 4.6 mph - N/A   Scattered Clouds
11:35 PM 61.0 °F - 57.9 °F 90% 30.02 in 10.0 mi SSE 3.5 mph - N/A   Clear
11:55 PM 60.8 °F - 57.9 °F 90% 30.01 in 10.0 mi SSE 3.5 mph - N/A   Clear